Volver al catálogo

STARLINK-30377

ActivoComunicacionesVLEO
NORAD 57825·PAYLOAD·🇺🇸 United States

Lanzado Sep 9, 2023 desde Cape Canaveral Space Force Station

Loading…

Próximos Pases (próximas 24 horas)

TLE

ActualizadoSource: CelesTrak SupGP

Época: Sep 14, 2026, 22:00 UTC

1 57825C 23138T   26257.91715278  .00035033  00000+0  12691-2 0  2577
2 57825  42.9994 245.2811 0001281 255.6385   9.9537 15.27557226    11

Sigue STARLINK-30377 en tiempo real con AllMySat

Download on the App Store